Voltar ao catálogo

STARLINK-34072

AtivoComunicaçõesVLEO
NORAD 64101·PAYLOAD·🇺🇸 United States

Lançado May 23, 2025 de Vandenberg Space Force Base

Loading…

Próximas Passagens (próximas 24 horas)

TLE

AtualizadoSource: CelesTrak SupGP

Época: Sep 14, 2026, 22:24 UTC

1 64101C 25110F   26257.93381944  .00021094  00000+0  67819-3 0  2570
2 64101  53.1586 226.4047 0001455  89.0814 338.9453 15.31697994    12

Acompanhe STARLINK-34072 em tempo real com AllMySat

Download on the App Store